| time (UTC) | temp F | wind direction | speed MPH | gust MPH | rain 1hr in | rain 24hr in | rain mn in | humidity % | barometer mb |
| 20260905084604 | 66 | 277 | 8.0 | 13.0 | 0.00 | 0.00 | 0.00 | 90 | 1019.0 |
| 20260905083403 | 65 | 270 | 9.0 | 12.0 | 0.00 | 0.00 | 0.00 | 91 | 1019.0 |
| 20260905082201 | 65 | 270 | 6.0 | 9.0 | 0.00 | 0.00 | 0.00 | 93 | 1019.0 |
| 20260905081000 | 64 | 265 | 6.0 | 9.0 | 0.00 | 0.00 | 0.00 | 95 | 1019.0 |
| 20260905075759 | 63 | 270 | 7.0 | 9.0 | 0.00 | 0.00 | 0.00 | 96 | 1019.0 |
| 20260905074558 | 63 | 270 | 5.0 | 8.0 | 0.00 | 0.00 | 0.00 | 97 | 1019.0 |
| 20260905073417 | 61 | 259 | 7.0 | 9.0 | 0.00 | 0.00 | 0.00 | 97 | 1019.0 |
| 20260905072155 | 61 | 270 | 6.0 | 9.0 | 0.00 | 0.00 | 0.00 | 97 | 1019.0 |
| 20260905070954 | 60 | 270 | 8.0 | 11.0 | 0.00 | 0.00 | 0.00 | 98 | 1019.0 |
| 20260905065813 | 59 | 285 | 4.0 | 7.0 | 0.00 | 0.00 | 0.00 | 98 | 1019.0 |
| 20260905064553 | 59 | 270 | 4.0 | 7.0 | 0.00 | 0.00 | 0.00 | 98 | 1019.0 |
| 20260905063351 | 59 | 270 | 5.0 | 9.0 | 0.00 | 0.00 | 0.00 | 98 | 1018.2 |
| 20260905062150 | 59 | 263 | 5.0 | 9.0 | 0.00 | 0.00 | 0.00 | 98 | 1019.0 |
| 20260905060949 | 58 | 270 | 4.0 | 9.0 | 0.00 | 0.00 | 0.00 | 98 | 1019.0 |
| 20260905055748 | 58 | 252 | 6.0 | 7.0 | 0.00 | 0.00 | 0.00 | 98 | 1019.0 |
| 20260905054547 | 58 | 256 | 5.0 | 10.0 | 0.00 | 0.00 | 0.00 | 98 | 1019.0 |
| 20260905053346 | 58 | 248 | 5.0 | 7.0 | 0.00 | 0.00 | 0.00 | 98 | 1019.0 |
| 20260905052144 | 57 | 270 | 4.0 | 7.0 | 0.00 | 0.00 | 0.00 | 98 | 1019.0 |
| 20260905050943 | 57 | 252 | 4.0 | 5.0 | 0.00 | 0.00 | 0.00 | 98 | 1019.0 |
| 20260905045742 | 57 | 253 | 2.0 | 5.0 | 0.00 | 0.00 | 0.00 | 98 | 1019.0 |
| 20260905044541 | 58 | 270 | 2.0 | 3.0 | 0.00 | 0.00 | 0.00 | 98 | 1019.0 |
| 20260905043340 | 58 | 270 | 5.0 | 9.0 | 0.00 | 0.00 | 0.00 | 98 | 1019.0 |
| 20260905042139 | 58 | 270 | 2.0 | 5.0 | 0.00 | 0.00 | 0.00 | 97 | 1016.5 |
| 20260905040938 | 58 | 270 | 3.0 | 6.0 | 0.00 | 0.00 | 0.00 | 97 | 1019.0 |
| 20260905035757 | 58 | 270 | 4.0 | 9.0 | 0.00 | 0.00 | 0.00 | 97 | 1017.3 |
| 20260905034536 | 58 | 270 | 3.0 | 5.0 | 0.00 | 0.00 | 0.00 | 97 | 1016.5 |
| 20260905033335 | 58 | 283 | 3.0 | 4.0 | 0.00 | 0.00 | 0.00 | 97 | 1019.0 |
| 20260905032153 | 58 | 281 | 3.0 | 5.0 | 0.00 | 0.00 | 0.00 | 96 | 1015.6 |
| 20260905030933 | 58 | 270 | 4.0 | 6.0 | 0.00 | 0.00 | 0.00 | 96 | 1015.6 |
| 20260905025731 | 58 | 270 | 3.0 | 7.0 | 0.00 | 0.00 | 0.00 | 96 | 1015.6 |
| 20260905024530 | 59 | 270 | 4.0 | 6.0 | 0.00 | 0.00 | 0.00 | 96 | 1015.6 |
| 20260905023349 | 59 | 270 | 4.0 | 7.0 | 0.00 | 0.00 | 0.00 | 96 | 1015.6 |
| 20260905022811 | 58 | 270 | 5.0 | 7.0 | 0.00 | 0.00 | 0.00 | 96 | 1015.6 |
| 20260905021610 | 58 | 257 | 4.0 | 7.0 | 0.00 | 0.00 | 0.00 | 95 | 1015.6 |
| 20260905020409 | 59 | 270 | 4.0 | 6.0 | 0.00 | 0.00 | 0.00 | 95 | 1015.6 |
| 20260905015208 | 59 | 285 | 3.0 | 6.0 | 0.00 | 0.00 | 0.00 | 95 | 1015.6 |
| 20260905014006 | 59 | 270 | 3.0 | 5.0 | 0.00 | 0.00 | 0.00 | 95 | 1015.6 |
| 20260905012806 | 59 | 270 | 3.0 | 4.0 | 0.00 | 0.00 | 0.00 | 95 | 1015.6 |
| 20260905011624 | 59 | 270 | 6.0 | 7.0 | 0.00 | 0.00 | 0.00 | 95 | 1015.6 |
| 20260905010403 | 59 | 270 | 4.0 | 7.0 | 0.00 | 0.00 | 0.00 | 95 | 1015.6 |
| 20260905005242 | 59 | 270 | 4.0 | 7.0 | 0.00 | 0.00 | 0.00 | 95 | 1015.6 |
| 20260905004001 | 59 | 270 | 5.0 | 7.0 | 0.00 | 0.00 | 0.00 | 95 | 1015.6 |
| 20260905002800 | 59 | 270 | 3.0 | 5.0 | 0.00 | 0.00 | 0.00 | 95 | 1015.6 |
| 20260905001559 | 59 | 270 | 5.0 | 9.0 | 0.00 | 0.00 | 0.00 | 95 | 1015.6 |
| 20260905000358 | 59 | 270 | 5.0 | 6.0 | 0.00 | 0.00 | 0.00 | 95 | 1015.6 |
| 20260904235157 | 59 | 270 | 5.0 | 6.0 | 0.00 | 0.00 | 0.00 | 95 | 1015.6 |
| 20260904233956 | 60 | 264 | 4.0 | 5.0 | 0.00 | 0.00 | 0.00 | 95 | 1015.6 |
| 20260904232755 | 60 | 262 | 3.0 | 7.0 | 0.00 | 0.00 | 0.00 | 95 | 1015.6 |
| 20260904231554 | 60 | 263 | 3.0 | 5.0 | 0.00 | 0.00 | 0.00 | 94 | 1015.6 |
| 20260904230353 | 60 | 270 | 5.0 | 7.0 | 0.00 | 0.00 | 0.00 | 94 | 1015.6 |
| 20260904225152 | 61 | 260 | 2.0 | 4.0 | 0.00 | 0.00 | 0.00 | 93 | 1015.6 |
| 20260904223951 | 61 | 270 | 2.0 | 3.0 | 0.00 | 0.00 | 0.00 | 93 | 1015.6 |
| 20260904222750 | 62 | 273 | 3.0 | 5.0 | 0.00 | 0.00 | 0.00 | 92 | 1015.6 |
| 20260904221549 | 62 | 281 | 3.0 | 5.0 | 0.00 | 0.00 | 0.00 | 92 | 1015.6 |
| 20260904220347 | 63 | 270 | 5.0 | 7.0 | 0.00 | 0.00 | 0.00 | 91 | 1015.6 |
| 20260904215203 | 63 | 270 | 4.0 | 7.0 | 0.00 | 0.00 | 0.00 | 91 | 1015.6 |
| 20260904214002 | 64 | 270 | 5.0 | 5.0 | 0.00 | 0.00 | 0.00 | 90 | 1015.6 |
| 20260904212801 | 64 | 258 | 4.0 | 9.0 | 0.00 | 0.00 | 0.00 | 89 | 1015.6 |
| 20260904211600 | 65 | 270 | 6.0 | 9.0 | 0.00 | 0.00 | 0.00 | 89 | 1015.6 |
| 20260904210358 | 65 | 270 | 5.0 | 7.0 | 0.00 | 0.00 | 0.00 | 89 | 1015.6 |
| 20260904205217 | 65 | 287 | 6.0 | 11.0 | 0.00 | 0.00 | 0.00 | 90 | 1015.6 |
| 20260904203957 | 65 | 286 | 7.0 | 10.0 | 0.00 | 0.00 | 0.00 | 92 | 1015.6 |
| 20260904202755 | 65 | 270 | 4.0 | 6.0 | 0.00 | 0.00 | 0.00 | 92 | 1015.6 |
| 20260904201554 | 66 | 270 | 6.0 | 7.0 | 0.00 | 0.00 | 0.00 | 92 | 1015.6 |
| 20260904200353 | 66 | 286 | 6.0 | 9.0 | 0.00 | 0.00 | 0.00 | 93 | 1015.6 |
| 20260904195152 | 66 | 293 | 7.0 | 11.0 | 0.00 | 0.00 | 0.00 | 93 | 1015.6 |
| 20260904193951 | 66 | 270 | 6.0 | 9.0 | 0.00 | 0.00 | 0.00 | 93 | 1015.6 |
| 20260904192749 | 66 | 285 | 6.0 | 9.0 | 0.00 | 0.00 | 0.00 | 94 | 1015.6 |
| 20260904191609 | 66 | 293 | 6.0 | 8.0 | 0.00 | 0.00 | 0.00 | 94 | 1015.6 |
| 20260904190408 | 66 | 270 | 5.0 | 9.0 | 0.00 | 0.00 | 0.00 | 94 | 1015.6 |
| 20260904185147 | 66 | 293 | 7.0 | 11.0 | 0.00 | 0.00 | 0.00 | 95 | 1015.6 |
| 20260904183945 | 66 | 293 | 6.0 | 11.0 | 0.00 | 0.00 | 0.00 | 95 | 1012.2 |
| 20260904182743 | 66 | 293 | 9.0 | 13.0 | 0.00 | 0.00 | 0.00 | 96 | 1012.2 |
| 20260904181542 | 66 | 267 | 7.0 | 12.0 | 0.00 | 0.00 | 0.00 | 96 | 1012.2 |
| 20260904180341 | 67 | 265 | 7.0 | 14.0 | 0.00 | 0.00 | 0.00 | 98 | 1012.2 |
| 20260904175140 | 67 | 270 | 8.0 | 12.0 | 0.00 | 0.00 | 0.00 | 98 | 1012.2 |
| 20260904173959 | 67 | 270 | 7.0 | 10.0 | 0.00 | 0.00 | 0.00 | 98 | 1012.2 |
| 20260904172738 | 67 | 270 | 6.0 | 7.0 | 0.00 | 0.00 | 0.00 | 99 | 1012.2 |
| 20260904171537 | 67 | 270 | 4.0 | 7.0 | 0.00 | 0.00 | 0.00 | 99 | 1012.2 |
| 20260904170335 | 67 | 270 | 4.0 | 8.0 | 0.00 | 0.00 | 0.00 | 99 | 1012.2 |
| 20260904165135 | 67 | 288 | 8.0 | 11.0 | 0.00 | 0.00 | 0.00 | 99 | 1012.2 |
| 20260904163934 | 67 | 270 | 8.0 | 13.0 | 0.00 | 0.00 | 0.00 | 99 | 1012.2 |
| 20260904162733 | 67 | 284 | 9.0 | 24.0 | 0.00 | 0.00 | 0.00 | 100 | 1012.2 |
| 20260904161531 | 67 | 270 | 10.0 | 17.0 | 0.00 | 0.00 | 0.00 | 100 | 1012.2 |
| 20260904160331 | 67 | 270 | 9.0 | 11.0 | 0.00 | 0.00 | 0.00 | 100 | 1012.2 |
| 20260904155130 | 66 | 274 | 9.0 | 12.0 | 0.00 | 0.00 | 0.00 | 100 | 1012.2 |
| 20260904153928 | 66 | 279 | 8.0 | 14.0 | 0.00 | 0.00 | 0.00 | 100 | 1012.2 |
| 20260904152726 | 66 | 270 | 8.0 | 9.0 | 0.00 | 0.00 | 0.00 | 100 | 1012.2 |
| 20260904151525 | 65 | 258 | 8.0 | 12.0 | 0.00 | 0.00 | 0.00 | 100 | 1012.2 |
| 20260904150324 | 64 | 270 | 8.0 | 13.0 | 0.00 | 0.00 | 0.00 | 100 | 1012.2 |
| 20260904145123 | 64 | 286 | 9.0 | 15.0 | 0.00 | 0.00 | 0.00 | 100 | 1012.2 |
| 20260904143922 | 64 | 285 | 7.0 | 13.0 | 0.00 | 0.00 | 0.00 | 100 | 1012.2 |
| 20260904142721 | 65 | 293 | 9.0 | 12.0 | 0.00 | 0.00 | 0.00 | 100 | 1012.2 |
| 20260904141520 | 65 | 309 | 11.0 | 16.0 | 0.00 | 0.00 | 0.00 | 100 | 1012.2 |
| 20260904140319 | 65 | 293 | 11.0 | 15.0 | 0.00 | 0.00 | 0.00 | 100 | 1012.2 |
| 20260904135118 | 65 | 293 | 11.0 | 15.0 | 0.00 | 0.00 | 0.00 | 100 | 1012.2 |
| 20260904133916 | 65 | 293 | 10.0 | 16.0 | 0.00 | 0.00 | 0.00 | 100 | 1012.2 |
| 20260904132715 | 66 | 299 | 10.0 | 15.0 | 0.00 | 0.00 | 0.00 | 99 | 1012.2 |
| 20260904131614 | 67 | 310 | 14.0 | 18.0 | 0.00 | 0.00 | 0.00 | 99 | 1012.2 |
| 20260904130413 | 67 | 293 | 9.0 | 16.0 | 0.00 | 0.00 | 0.00 | 98 | 1012.2 |
| 20260904125212 | 69 | 315 | 13.0 | 24.0 | 0.00 | 0.00 | 0.00 | 96 | 1012.2 |
| 20260904124031 | 71 | 256 | 8.0 | 11.0 | 0.00 | 0.00 | 0.00 | 96 | 1011.4 |
| 20260904122809 | 71 | 270 | 10.0 | 16.0 | 0.00 | 0.00 | 0.00 | 96 | 1012.2 |
| 20260904121608 | 71 | 270 | 9.0 | 13.0 | 0.00 | 0.00 | 0.00 | 94 | 1012.2 |
| 20260904120407 | 72 | 270 | 9.0 | 12.0 | 0.00 | 0.00 | 0.00 | 92 | 1012.2 |
| 20260904115225 | 72 | 248 | 11.0 | 13.0 | 0.00 | 0.00 | 0.00 | 92 | 1012.2 |
| 20260904114004 | 72 | 270 | 10.0 | 12.0 | 0.00 | 0.00 | 0.00 | 93 | 1012.2 |
| 20260904112803 | 72 | 248 | 10.0 | 13.0 | 0.00 | 0.00 | 0.00 | 93 | 1012.2 |
| 20260904111602 | 72 | 270 | 15.0 | 20.0 | 0.00 | 0.00 | 0.00 | 93 | 1011.4 |
| 20260904110401 | 72 | 270 | 12.0 | 15.0 | 0.00 | 0.00 | 0.00 | 94 | 1012.2 |
| 20260904105200 | 72 | 270 | 9.0 | 11.0 | 0.00 | 0.00 | 0.00 | 93 | 1012.2 |
| 20260904103959 | 72 | 248 | 12.0 | 25.0 | 0.00 | 0.00 | 0.00 | 92 | 1012.2 |
| 20260904102818 | 73 | 253 | 13.0 | 18.0 | 0.00 | 0.00 | 0.00 | 92 | 1012.2 |
| 20260904101556 | 72 | 257 | 14.0 | 20.0 | 0.00 | 0.00 | 0.00 | 93 | 1012.2 |
| 20260904100355 | 72 | 257 | 14.0 | 18.0 | 0.00 | 0.00 | 0.00 | 93 | 1012.2 |
| 20260904095154 | 72 | 257 | 13.0 | 21.0 | 0.00 | 0.00 | 0.00 | 93 | 1010.5 |
| 20260904093953 | 73 | 263 | 16.0 | 18.0 | 0.00 | 0.00 | 0.00 | 93 | 1012.2 |
| 20260904092752 | 73 | 270 | 10.0 | 17.0 | 0.00 | 0.00 | 0.00 | 94 | 1012.2 |
| 20260904091550 | 72 | 248 | 11.0 | 16.0 | 0.00 | 0.00 | 0.00 | 95 | 1012.2 |
| 20260904090409 | 72 | 248 | 12.0 | 22.0 | 0.00 | 0.00 | 0.00 | 96 | 1012.2 |